[Iaude] MPEC V82: 2023 VK2 [a=1.05,e=0.07,i=29.1,H=24.2]
    mpec at marsden.cfa.harvard.edu 
    mpec at marsden.cfa.harvard.edu
       
    Mon Nov  6 23:08:17 EST 2023
    
    
  
M.P.E.C. 2023-V82                              Issued 2023 November 7, 04:06 UT
     The Minor Planet Electronic Circulars contain information on unusual
         minor planets, routine data on comets and natural satellites,
         and occasional editorial announcements.  They are published
    on behalf of Division F of the International Astronomical Union by the
          Minor Planet Center, Smithsonian Astrophysical Observatory,
                          Cambridge, MA 02138, U.S.A.
			  
             Prepared using the Tamkin Foundation Computer Network
                              MPC at CFA.HARVARD.EDU
            URL https://www.minorplanetcenter.net/    ISSN 1523-6714
                                    2023 VK2                                    
Observations:
     K23V02K* C2023 11 05.31714201 05 35.976+07 36 10.75         20.46wXEV082F51
     K23V02K  C2023 11 05.32831901 05 28.394+07 38 25.34         20.73wXEV082F51
     K23V02K  C2023 11 05.35072701 05 13.231+07 42 53.50         20.49wXEV082F51
     K23V02K  C2023 11 05.41097401 04 32.558+07 54 51.50         20.74GVEV082F51
     K23V02K  C2023 11 05.41161601 04 32.103+07 54 59.51         20.63GVEV082F51
     K23V02K KC2023 11 05.91547300 59 12.87 +09 32 58.6          20.1 GVEV082L01
     K23V02K KC2023 11 05.91744800 59 11.59 +09 33 21.4          20.0 GVEV082L01
     K23V02K KC2023 11 05.91942300 59 10.28 +09 33 44.0          20.2 GVEV082L01
     K23V02K KC2023 11 05.92140000 59 09.01 +09 34 06.8          20.3 GVEV082L01
     K23V02K IC2023 11 05.92337600 59 07.74 +09 34 30.0          20.1 GVEV082L01
     K23V02K |C2023 11 06.09100 00 57 24.60 +10 08 08.6          20.7 VuEV082807
     K23V02K |C2023 11 06.09620 00 57 21.27 +10 09 08.8          20.7 VuEV082807
     K23V02K KC2023 11 06.09987000 57 20.00 +10 08 20.1          20.9 GVEV082H21
     K23V02K |C2023 11 06.10132 00 57 17.85 +10 10 06.3          21.3 VuEV082807
     K23V02K KC2023 11 06.10546200 57 16.37 +10 09 23.9          21.1 GVEV082H21
     K23V02K KC2023 11 06.10863100 57 14.32 +10 10 00.1          21.1 GVEV082H21
     K23V02K KC2023 11 06.11245100 57 11.85 +10 10 44.0          21.3 GVEV082H21
     K23V02K KC2023 11 06.15160000 56 47.92 +10 18 14.2          20.4 GXEV082858
     K23V02K KC2023 11 06.15854800 56 43.39 +10 19 33.8          19.8 GXEV082858
     K23V02K KC2023 11 06.16575100 56 38.73 +10 20 55.4          20.0 GXEV082858
     K23V02K KC2023 11 07.11013 00 47 08.66 +13 13 37.9          20.3 RVEV082691
     K23V02K KC2023 11 07.13652 00 46 52.45 +13 18 17.4          20.0 RVEV082691
Observer details:
691 Steward Observatory, Kitt Peak-Spacewatch.  Observer A. F. Tubbiolo.
    0.9-m f/3 reflector + CCD.
807 Cerro Tololo Observatory, La Serena.  Observers T. Linder, R. Holmes, L.
    Horn.  0.61-m f/6.5 Dall-Kirkham Astrograph + CCD.
858 Tebbutt Observatory, Edgewood.  Observer F. B. Zoltowski.  0.51-m f/8.1
    Schmidt-Cassegrain + CCD.
F51 Pan-STARRS 1, Haleakala.  Observers J. Bulger, T. Lowe, P. Minguez, A.
    Schultz, I. Smith.  Measurers K. Chambers, T. de Boer, J. Fairlamb, H.
    Gao, M. Huber, C.-C. Lin, E. Magnier, Y. Ramanjooloo, R. Wainscoat, R.
    Weryk.  1.8-m Ritchey-Chretien + CCD.
H21 Astronomical Research Observatory, Westfield.  Observer R. Holmes.
    Measurers T. Linder, R. Holmes, L. Horn.  0.76-m f/3.0 astrograph + CCD.
L01 Visnjan Observatory, Tican.  Observer K. Korlevic.  1.0-m f/2.9 reflector
    + CCD.
Orbital elements:
2023 VK2                                                 Earth MOID = 0.0019 AU
Epoch 2023 Sept. 13.0 TT = JDT 2460200.5                MPC                     
M  69.90775              (2000.0)            P               Q                  
n   0.91008963     Peri.  235.11753     +0.02013786     +0.95011118             
a   1.0545810      Node    39.83565     -0.68269218     +0.24051331             
e   0.0679251      Incl.   29.07137     -0.73042855     -0.19860033             
P   1.08           H   24.20          G   0.15           U   8                  
Residuals in seconds of arc
231105 F51  0.2+  0.3-    231105 L01  0.1+  0.2-    231106 H21  0.0   0.2+
231105 F51  0.1-  0.3+    231105 L01  0.4+  0.2+    231106 858  0.4+  0.1+
231105 F51  0.0   0.2+    231106 807  0.0   0.0     231106 858  0.2-  0.6+
231105 F51  0.2+  0.2-    231106 807 (0.9+  0.8+)   231106 858  0.3-  0.3+
231105 F51  0.2-  0.2+    231106 H21  0.2+  0.0     231107 691  0.3+  0.5+
231105 L01  0.2+  0.2-    231106 807  0.4-  0.0     231107 691  0.0   0.4-
231105 L01  0.3+  0.1-    231106 H21  0.0   0.1-
231105 L01  0.1-  0.3-    231106 H21  0.0   0.1-
Ephemeris:
2023 VK2                 a,e,i = 1.05, 0.07, 29                  q = 0.9829
Date    TT    R. A. (2000) Decl.     Delta      r    Elong.  Phase     V
2023 10 08    05 30 59.6 -45 55 11   0.2294  1.0627    99.8    67.9    23.5
...
2023 10 23    03 44 26.1 -33 54 18   0.1306  1.0790   127.1    47.3    21.7
...
2023 10 31    02 08 20.4 -11 38 28   0.1034  1.0872   154.4    23.2    20.6
...
2023 11 06    00 58 21.3 +09 49 48   0.1116  1.0929   154.0    23.4    20.7
2023 11 07    00 48 11.6 +12 54 26   0.1153  1.0938   151.3    25.8    20.9
2023 11 08    00 38 33.8 +15 45 24   0.1197  1.0947   148.4    28.3    21.0
...
2023 11 14    23 51 57.9 +28 19 22   0.1542  1.1000   132.7    41.4    22.0
...
2023 11 22    23 14 38.4 +37 01 01   0.2124  1.1063   119.0    51.4    23.0
...
2023 12 07    22 47 41.3 +44 19 38   0.3296  1.1161   104.8    58.6    24.1
A. U. Tomatic                (C) Copyright 2023 MPC           M.P.E.C. 2023-V82
    
    
More information about the Iaude
mailing list